Regional Weather Roundup
Issued by NWS

Home | Current Version | Previous Version | Text Only | Print | Product List | Glossary Off
Versions: 1 2 3 4 5 6 7 8 9 10 11 12 13 14 15 16 17 18 19 20 21 22 23 24 25 26 27 28 29 30 31 32 33 34 35 36 37 38 39 40 41 42 43 44 45 46 47 48 49 50

000
ASUS43 KFSD 051402
RWRSD

WEATHER ROUNDUP FOR SOUTH DAKOTA
NATIONAL WEATHER SERVICE SIOUX FALLS SD
900 AM CDT TUE MAY 05 2015

NOTE: "FAIR" INDICATES FEW OR NO CLOUDS BELOW 12,000 FEET WITH NO
SIGNIFICANT WEATHER AND/OR OBSTRUCTIONS TO VISIBILITY.


SDZ001>005-009-010-012>017-051500-
NORTHWEST AND NORTH CENTRAL SOUTH DAKOTA

CITY           SKY/WX    TMP DP  RH WIND       PRES   REMARKS
BUFFALO          N/A     55  35  47 SE10      29.90S
FAITH            N/A     56  34  43 S20       30.01S
MOBRIDGE       MOSUNNY   60  38  43 SE14      30.05F
$$

SDZ012>016-024>037-041>051-057-063-072>074-051500-
SOUTHWEST AND SOUTH CENTRAL SOUTH DAKOTA

CITY           SKY/WX    TMP DP  RH WIND       PRES   REMARKS
RAPID CTY ARPT SUNNY     50  38  63 SE7       29.99F
PIERRE         CLOUDY    55  42  61 SE15      30.05F
CUSTER         SUNNY     49  42  77 VRB6      30.02F
PHILIP         CLOUDY    50  34  54 E7        30.03F
PINE RIDGE     CLOUDY    49  43  80 SE6       30.02F
WINNER         PTSUNNY   59  45  59 SE16      30.06S
$$

SDZ004>011-016>023-039-040-051500-
NORTHEAST SOUTH DAKOTA

CITY           SKY/WX    TMP DP  RH WIND       PRES   REMARKS
ABERDEEN       MOSUNNY   62  32  32 SE13      30.13F
WATERTOWN      SUNNY     59  27  29 E9        30.14F
BROOKINGS      SUNNY     61  30  31 E17       30.12F
SISSETON         N/A     58  29  33 S12       30.15F
$$

SDZ017-020-022-023-036>040-048>070-051500-
SOUTHEAST SOUTH DAKOTA

CITY           SKY/WX    TMP DP  RH WIND       PRES   REMARKS
SIOUX FALLS    PTSUNNY   60  36  40 E13       30.10S
HURON          SUNNY     61  34  36 E12       30.10F
MITCHELL       MOSUNNY   59  36  42 E12       30.10S
YANKTON        CLOUDY    59  39  47 E8        30.07S
$$

ABBREVIATIONS USED IN REMARKS
   TC - TEMPERATURE IN CELSIUS
  WCI - WIND CHILL INDEX
   HX - HEAT INDEX
  VSB - VISIBILITY




USA.gov is the U.S. government's official web portal to all federal, state and local government web resources and services.